This demonstration page uses our WeatherBlox Daily Observations layout. Learn more.

39.08367, -84.50855

Hourly Observations for January 10, 2020

Temp ( °F °C ) Dew Point ( °F °C ) Humidity (%) Winds ( mph kmh ) Pressure ( in mb ) Visibility ( mi km ) Precip ( " mm )
12:53 am 00:53 Clear 54 12.2 33 0.6 45 45 SSW 10 17 30.21 1023 10 16.0934 0 0
1:53 am 01:53 Mostly Cloudy 55 12.8 36 2.2 49 49 SSW 14 22 30.2 1023 10 16.0934 0 0
2:53 am 02:53 Cloudy with Light Rain 56 13.3 39 3.9 53 53 SSW 14 22 30.22 1024 10 16.0934 0.001 0.001
3:53 am 03:53 Cloudy 55 12.8 41 5 59 59 SW 10 17 30.23 1024 10 16.0934 0.001 0.001
4:53 am 04:53 Cloudy 55 12.8 42 5.6 62 62 SSW 8 13 30.23 1024 10 16.0934 0.001 0.001
5:53 am 05:53 Cloudy with Light Rain 51 10.6 46 7.8 83 83 S 5 7 30.24 1024 10 16.0934 0.001 0.001
6:53 am 06:53 Cloudy with Light Rain 50 10 47 8.3 89 89 Calm 30.26 1025 10 16.0934 0.01 0.254
7:53 am 07:53 Cloudy with Light Rain 49 9.4 47 8.3 93 93 Calm 30.24 1024 10 16.0934 0.001 0.001
8:53 am 08:53 Cloudy 54 12.2 46 7.8 75 75 W 6 9 30.26 1025 10 16.0934 0.001 0.001
9:53 am 09:53 Cloudy with Light Rain 51 10.6 48 8.9 89 89 NW 6 9 30.28 1025 8 12.87472 0.01 0.254
10:53 am 10:53 Cloudy with Light Rain 52 11.1 49 9.4 89 89 Calm 30.28 1025 7 11.26538 0.04 1.016
11:53 am 11:53 Cloudy with Light Rain 53 11.7 51 10.6 93 93 Calm 30.25 1024 6 9.65604 0.05 1.27
12:53 pm 12:53 Cloudy 53 11.7 51 10.6 93 93 Calm 30.22 1023 10 16.0934 0.01 0.254
1:53 pm 13:53 Cloudy 57 13.9 53 11.7 87 87 W 3 6 30.18 1022 10 16.0934 0 0
2:53 pm 14:53 Cloudy with Light Rain 62 16.7 52 11.1 70 70 SSW 14 22 30.17 1022 7 11.26538 0.01 0.254
3:53 pm 15:53 Cloudy with Light Rain 61 16.1 52 11.1 72 72 S 13 20 30.17 1022 7 11.26538 0.001 0.001
4:53 pm 16:53 Cloudy with Light Rain 59 15 53 11.7 81 81 S 9 15 30.17 1022 7 11.26538 0.01 0.254
5:53 pm 17:53 Cloudy 56 13.3 54 12.2 93 93 Calm 30.17 1022 7 11.26538 0.001 0.001
6:53 pm 18:53 Cloudy 55 12.8 54 12.2 96 96 ENE 3 6 30.17 1022 10 16.0934 0.001 0.001
7:53 pm 19:53 Cloudy with Light Rain 54 12.2 53 11.7 97 97 Calm 30.16 1021 8 12.87472 0.01 0.254
8:53 pm 20:53 Cloudy with Rain 56 13.3 53 11.7 90 90 SSE 7 11 30.13 1020 7 11.26538 0.08 2.032
9:53 pm 21:53 Cloudy with Rain 57 13.9 55 12.8 93 93 SSE 10 17 30.11 1020 7 11.26538 0.06 1.524
10:53 pm 22:53 Cloudy 57 13.9 54 12.2 90 90 S 6 9 30.08 1019 10 16.0934 0.09 2.286
11:53 pm 23:53 Cloudy 56 13.3 53 11.7 90 90 VRB 3 6 30.04 1017 10 16.0934 0 0

Powered by AerisWeather